Weather History for Cook, MN

Change the Weather History Date:

Friday, October 11, 2013

  Actual Average Record
Temperature  
Mean Temperature 61 °F -  
Max Temperature 71 °F 52 °F 71 °F (2011)
Min Temperature 51 °F 33 °F 24 °F (2000)
Degree Days  
Heating Degree Days 4    
Growing Degree Days 11 (Base 50)    
Moisture  
Dew Point 50 °F    
Average Humidity 69    
Maximum Humidity 88    
Minimum Humidity 46    
Precipitation  
Precipitation 0.00 in - - ()
Sea Level Pressure  
Sea Level Pressure 29.80 in    
Wind  
Wind Speed 6 mph (ESE)    
Max Wind Speed 20 mph    
Max Gust Speed 34 mph    
Visibility 10 miles    
Events Rain , Thunderstorm    
Averages and records for this station are not official NWS values.
T = Trace of Precipitation, MM = Missing Value Source: NWS Daily Summary

Daily Weather History Graph

Daily Weather History Graph

Search for Another Location

Airport:

Trip Planner

Search our weather history database for the weather conditions in past years. The results will help you decide how hot, cold, wet, or windy it might be!

Date:

Astronomy

Oct. 11, 2013 Rise Set
Actual Time 7:24 AM CDT 6:29 PM CDT
Civil Twilight 6:53 AM CDT 7:00 PM CDT
Nautical Twilight 6:17 AM CDT 7:36 PM CDT
Astronomical Twilight 5:41 AM CDT 8:12 PM CDT
Moon 2:20 PM CDT (10/11) No Moon Set
Length of Visible Light 12h 07m
Length of Day
11h 05m
Waxing Crescent, 47% of the Moon is Illuminated
Oct 11
Waxing Crescent
Oct 11
First Quarter
Oct 18
Full
Oct 26
Last Quarter
Nov 3
New

Hourly Weather History & Observations

Time (CDT) Temp. Dew Point Humidity Pressure Visibility Wind Dir Wind Speed Gust Speed Precip Events Conditions
12:16 AM 55.4 °F 44.6 °F 67% 29.93 in 10.0 mi ESE 3.5 mph - N/A   Clear
12:37 AM 55.4 °F 44.6 °F 67% 29.93 in 10.0 mi ESE 4.6 mph - N/A   Clear
12:56 AM 55.4 °F 44.6 °F 67% 29.92 in 10.0 mi Calm Calm - N/A   Clear
1:16 AM 55.4 °F 44.6 °F 67% 29.92 in 10.0 mi East 3.5 mph - N/A   Clear
1:36 AM 53.6 °F 44.6 °F 72% 29.92 in 10.0 mi ESE 3.5 mph - N/A   Clear
1:56 AM 55.4 °F 44.6 °F 67% 29.92 in 10.0 mi SE 4.6 mph - N/A   Clear
2:17 AM 55.4 °F 44.6 °F 67% 29.92 in 10.0 mi ESE 3.5 mph - N/A   Clear
2:36 AM 55.4 °F 46.4 °F 72% 29.93 in 10.0 mi ESE 3.5 mph - N/A   Clear
2:56 AM 55.4 °F 46.4 °F 72% 29.93 in 10.0 mi ESE 3.5 mph - N/A   Clear
3:17 AM 55.4 °F 46.4 °F 72% 29.93 in 10.0 mi ESE 3.5 mph - N/A   Clear
3:37 AM 55.4 °F 46.4 °F 72% 29.92 in 10.0 mi East 3.5 mph - N/A   Clear
3:56 AM 55.4 °F 46.4 °F 72% 29.92 in 10.0 mi East 3.5 mph - N/A   Clear
4:17 AM 55.4 °F 46.4 °F 72% 29.92 in 10.0 mi East 3.5 mph - N/A   Clear
4:37 AM 53.6 °F 46.4 °F 77% 29.93 in 10.0 mi East 3.5 mph - N/A   Clear
4:56 AM 53.6 °F 46.4 °F 77% 29.93 in 10.0 mi East 4.6 mph - N/A   Clear
5:17 AM 53.6 °F 46.4 °F 77% 29.92 in 10.0 mi East 4.6 mph - N/A   Clear
5:36 AM 53.6 °F 46.4 °F 77% 29.92 in 10.0 mi East 3.5 mph - N/A   Clear
5:56 AM 53.6 °F 46.4 °F 77% 29.91 in 10.0 mi East 3.5 mph - N/A   Clear
6:17 AM 53.6 °F 46.4 °F 77% 29.91 in 10.0 mi Calm Calm - N/A   Clear
6:36 AM 51.8 °F 46.4 °F 82% 29.91 in 10.0 mi East 3.5 mph - N/A   Clear
6:57 AM 53.6 °F 46.4 °F 77% 29.91 in 10.0 mi East 3.5 mph - N/A   Clear
7:16 AM 53.6 °F 46.4 °F 77% 29.91 in 10.0 mi East 3.5 mph - N/A   Clear
7:37 AM 53.6 °F 46.4 °F 77% 29.91 in 10.0 mi ESE 3.5 mph - N/A   Clear
7:57 AM 53.6 °F 46.4 °F 77% 29.90 in 10.0 mi East 3.5 mph - N/A   Clear
8:16 AM 53.6 °F 48.2 °F 82% 29.90 in 10.0 mi ESE 3.5 mph - N/A   Clear
8:37 AM 55.4 °F 48.2 °F 77% 29.89 in 10.0 mi ESE 5.8 mph - N/A   Clear
8:57 AM 55.4 °F 48.2 °F 77% 29.89 in 10.0 mi ESE 6.9 mph - N/A   Clear
9:16 AM 57.2 °F 48.2 °F 72% 29.89 in 10.0 mi SE 8.1 mph - N/A   Clear
9:37 AM 57.2 °F 48.2 °F 72% 29.89 in 10.0 mi SE 8.1 mph - N/A   Clear
9:56 AM 57.2 °F 50.0 °F 77% 29.88 in 10.0 mi SE 5.8 mph - N/A   Clear
10:17 AM 59.0 °F 50.0 °F 72% 29.88 in 10.0 mi SE 9.2 mph 16.1 mph N/A   Clear
10:37 AM 60.8 °F 50.0 °F 68% 29.87 in 10.0 mi SE 8.1 mph - N/A   Clear
10:56 AM 60.8 °F 51.8 °F 72% 29.86 in 10.0 mi ESE 6.9 mph - N/A   Clear
11:16 AM 62.6 °F 51.8 °F 68% 29.85 in 10.0 mi ESE 5.8 mph - N/A   Clear
11:37 AM 62.6 °F 51.8 °F 68% 29.83 in 10.0 mi SE 6.9 mph - N/A   Clear
11:57 AM 64.4 °F 51.8 °F 64% 29.83 in 10.0 mi SE 8.1 mph - N/A   Clear
12:16 PM 64.4 °F 51.8 °F 64% 29.82 in 10.0 mi SE 11.5 mph 18.4 mph N/A   Clear
12:36 PM 68.0 °F 51.8 °F 56% 29.80 in 10.0 mi SE 12.7 mph 25.3 mph N/A   Clear
12:57 PM 69.8 °F 51.8 °F 53% 29.78 in 10.0 mi SE 16.1 mph 27.6 mph N/A   Clear
1:17 PM 69.8 °F 51.8 °F 53% 29.77 in 10.0 mi SE 15.0 mph 21.9 mph N/A   Clear
1:36 PM 69.8 °F 51.8 °F 53% 29.75 in 10.0 mi SE 16.1 mph 34.5 mph N/A   Clear
1:57 PM 71.6 °F 50.0 °F 46% 29.73 in 10.0 mi SE 19.6 mph 29.9 mph N/A   Clear
2:16 PM 71.6 °F 50.0 °F 46% 29.72 in 10.0 mi SE 18.4 mph 31.1 mph N/A   Clear
2:37 PM 69.8 °F 50.0 °F 49% 29.71 in 10.0 mi SE 18.4 mph 32.2 mph N/A   Clear
2:56 PM 69.8 °F 50.0 °F 49% 29.71 in 10.0 mi SE 17.3 mph 26.5 mph N/A   Clear
3:17 PM 69.8 °F 51.8 °F 53% 29.71 in 10.0 mi SE 12.7 mph 25.3 mph N/A   Clear
3:37 PM 69.8 °F 51.8 °F 53% 29.71 in 10.0 mi SE 18.4 mph 29.9 mph N/A   Clear
3:57 PM 69.8 °F 51.8 °F 53% 29.71 in 10.0 mi SE 10.4 mph 29.9 mph N/A   Clear
4:16 PM 69.8 °F 51.8 °F 53% 29.72 in 10.0 mi SE 11.5 mph 25.3 mph N/A   Clear
4:37 PM 69.8 °F 51.8 °F 53% 29.71 in 10.0 mi ESE 9.2 mph 19.6 mph N/A   Clear
4:56 PM 68.0 °F 51.8 °F 56% 29.71 in 10.0 mi SE 10.4 mph 23.0 mph N/A Thunderstorm Clear
5:16 PM 66.2 °F 51.8 °F 60% 29.72 in 10.0 mi SE 8.1 mph 18.4 mph N/A   Clear
5:37 PM 66.2 °F 51.8 °F 60% 29.72 in 10.0 mi ESE 6.9 mph - N/A   Clear
5:56 PM 66.2 °F 51.8 °F 60% 29.71 in 10.0 mi SE 4.6 mph - N/A   Mostly Cloudy
6:16 PM 66.2 °F 51.8 °F 60% 29.72 in 10.0 mi SE 3.5 mph - N/A   Mostly Cloudy
6:37 PM 62.6 °F 55.4 °F 77% 29.74 in 5.0 mi ESE 3.5 mph - N/A Rain , Thunderstorm Heavy Thunderstorms and Rain
6:56 PM 60.8 °F 55.4 °F 82% 29.71 in 10.0 mi East 3.5 mph - N/A Rain , Thunderstorm Light Thunderstorms and Rain
7:16 PM 59.0 °F 55.4 °F 88% 29.70 in 10.0 mi East 6.9 mph - N/A Rain Light Rain
7:37 PM 59.0 °F 55.4 °F 88% 29.68 in 10.0 mi East 5.8 mph - N/A Thunderstorm Overcast
7:56 PM 59.0 °F 55.4 °F 88% 29.68 in 10.0 mi East 8.1 mph - N/A   Overcast
8:16 PM 60.8 °F 55.4 °F 82% 29.67 in 10.0 mi East 8.1 mph - N/A Thunderstorm Overcast
8:37 PM 60.8 °F 53.6 °F 77% 29.66 in 10.0 mi ESE 8.1 mph - N/A   Overcast
8:56 PM 60.8 °F 53.6 °F 77% 29.64 in 10.0 mi ESE 6.9 mph - N/A   Overcast
9:16 PM 60.8 °F 53.6 °F 77% 29.63 in 10.0 mi ESE 6.9 mph - N/A   Mostly Cloudy
9:37 PM 60.8 °F 53.6 °F 77% 29.62 in 10.0 mi ESE 11.5 mph 18.4 mph N/A   Scattered Clouds
9:56 PM 62.6 °F 53.6 °F 72% 29.62 in 10.0 mi SE 11.5 mph 17.3 mph N/A   Clear
10:16 PM 62.6 °F 53.6 °F 72% 29.61 in 10.0 mi SE 11.5 mph 25.3 mph N/A   Clear
10:37 PM 62.6 °F 53.6 °F 72% 29.61 in 10.0 mi SE 10.4 mph 20.7 mph N/A   Scattered Clouds
10:56 PM 62.6 °F 53.6 °F 72% 29.60 in 10.0 mi SE 9.2 mph 24.2 mph N/A   Scattered Clouds
11:17 PM 62.6 °F 53.6 °F 72% 29.59 in 10.0 mi SE 11.5 mph 19.6 mph N/A   Clear
11:37 PM 62.6 °F 53.6 °F 72% 29.59 in 10.0 mi SE 12.7 mph 19.6 mph N/A   Clear
11:56 PM 62.6 °F 53.6 °F 72% 29.58 in 10.0 mi SE 16.1 mph 24.2 mph N/A   Scattered Clouds